COSMOS 1275 DEB

Satellite information

Favourite Embed

Satellite Type and Status

DEBRISIN ORBIT

Key statistics

Satellite COSMOS 1275 DEB at a glance.

Uptime

16164

Days in orbit

Revolutions

≈ 13.8

Per day

Orbit

LEO

Low Earth Orbit

Inclination

83.0

Latest

Satellite identification and parameters

Extended collection of information and parameters for COSMOS 1275 DEB.

Object identification

Identified? True

Debris? True

Object name: COSMOS 1275 DEB

International designator: 1981-053C

Object number (NORAD): 12648

Object ID (CCSDS): 12648

Country: COMMONWEALTH OF INDEPENDENT STATES (CIS)

Current information (Y/N): Y

RCS size: MEDIUM

Orbital parameters

Period: 104.229 minutes

Inclination: 82.9664 deg

SMA: 7336.451 km

Apoapsis: 967.948 km

Periapsis: 948.683 km

RAAN: 60.4355 deg

Eccentricy: 0.00131301

Argument of periapsis: 258.2144 deg

Mean anomaly: 275.3161 deg

Mean motion: 13.81572793 rev/day

Mean motion (dot): 0.00000442 rev/day2

B* drag term: 0.00039995795 1/REarth

Two-line elements (TLE)

Creation date: Sept. 4, 2025, 10:13 a.m.

Reference frame: TEME

Reference center: EARTH

Epoch: Sept. 4, 2025, 5:51 a.m. UTC

TLE line 0: 0 COSMOS 1275 DEB

TLE line 1: 1 12648U 81053C 25247.24424005 .00000442 00000-0 39996-3 0 9998

TLE line 2: 2 12648 82.9664 60.4355 0013130 258.2144 275.3161 13.81572793218186

Live tracking on map

Real-time ground track for satellite COSMOS 1275 DEB.

In-orbit conjunctions

A list of the most updated potential collisions computed for object COSMOS 1275 DEB.

Target Orbit TCA Probability of collision Miss distance Type
THOR ABLESTAR DEB LEO 2025-03-16 17:53:40 0.000126856 110.0 (m) DEBRIS
FENGYUN 1C DEB SSO 2024-10-10 08:44:36 0.000103916 152.0 (m) DEBRIS
COSMOS 1275 DEB LEO 2024-07-10 03:25:28 0.0002937859 255.0 (m) DEBRIS

Associated space launch

Navigation satellite providing location information for the Tsiklon-B navigation system

COSMOS 1275 DEB was lifted into orbit during the mission ‘Kosmos-3M | Parus 27’, on board a Kosmos-3M space rocket.

The launch took place on June 4, 1981, 3:41 p.m. from 132/2.

For more information about the launch, click the button.

Launch to space Kosmos-3M | Parus 27
Kosmos-3M | Parus 27

Agency: N/A

Status: Launch Successful

Launch date: June 4, 1981, 3:41 p.m. UTC

Rocket: Kosmos-3M

Launch pad: 132/2

Location: Plesetsk Cosmodrome, Russian Federation

...

Latest news about this satellite

There are no fresh news available about this satellite. Check back as we update our databases every day.


Newsletter sign-up

Weekly statistics, charts and insights to help you stay on top of the space industry.